CAPE
1083 1072 1231 1148 1100 1187 1182 1041 1000 964 837 881 1138 1375 1593 1720 1759 1907 2002 2223 2534 2592 2667 2830 2923 2894 2898 2865 2770 2687 2666 2592 2436 2206 1875 1479 1230 1209 1222 1158 904 0
1041 1045 1193 1284 1172 1140 1145 1039 962 1053 1091 968 1205 1385 1574 1756 1824 1864 1967 2032 2421 2588 2574 2666 2841 2900 2905 2893 2737 2597 2582 2590 2494 2235 2061 1964 1623 1390 1381 1209 1003 440
1056 1066 1106 1262 1298 1183 1128 1050 944 994 1220 1314 1302 1511 1612 1799 1872 1882 1916 1946 2121 2510 2567 2597 2684 2822 2880 2863 2744 2579 2548 2548 2438 2167 2126 2119 1916 1566 1517 1422 1196 1051
1152 1168 1151 1209 1305 1290 1140 1228 1203 1118 1024 1416 1588 1629 1720 1862 1896 1913 1891 2153 1956 2209 2456 2584 2658 2692 2779 2834 2768 2612 2566 2505 2431 2312 2228 2144 1986 1802 1602 1576 1336 1173
1226 1284 1289 1277 1313 1330 1274 1292 1367 1313 1214 1186 1603 1801 1850 1978 1977 1974 1925 1918 1964 2032 2193 2370 2598 2678 2685 2753 2811 2726 2669 2607 2540 2418 2298 2129 1962 1860 1759 1663 1600 1313
1318 1353 1405 1429 1438 1427 1401 1393 1478 1487 1398 1281 1322 1854 1964 2096 2116 2068 2030 1942 1983 2057 2159 2235 2369 2578 2644 2690 2762 2773 2753 2702 2640 2507 2359 2215 2047 1874 1763 1735 1762 1514
1415 1467 1515 1544 1572 1584 1521 1473 1507 1659 1624 1474 1378 1499 2014 2128 2267 2222 2152 2036 1995 2085 2191 2256 2292 2384 2520 2584 2635 2678 2674 2673 2657 2598 2495 2333 2135 1955 1798 1813 1802 1730
1510 1568 1620 1647 1656 1675 1678 1590 1530 1629 1842 1800 1643 1522 1690 2080 2137 2294 2325 2224 2125 2109 2156 2249 2302 2325 2378 2460 2475 2486 2534 2542 2570 2606 2570 2473 2331 2098 1870 1888 1867 1817
1652 1648 1688 1722 1733 1738 1735 1711 1627 1542 1707 2001 1995 1838 1748 1886 2075 2060 2119 2262 2254 2209 2163 2138 2211 2271 2297 2360 2396 2386 2399 2443 2469 2503 2532 2497 2423 2287 2079 1982 1949 1916
1778 1746 1744 1772 1811 1819 1796 1788 1738 1622 1515 1685 2067 2143 2084 1989 2081 2198 2151 2116 2143 2172 2162 2123 2092 2149 2208 2247 2324 2340 2339 2368 2414 2433 2445 2442 2403 2340 2214 2090 2021 1966
1828 1848 1834 1829 1841 1847 1853 1817 1793 1745 1601 1440 1462 1800 2184 2280 2181 2241 2348 2306 2216 2164 2170 2148 2114 2091 2150 2188 2253 2337 2349 2345 2369 2412 2435 2447 2418 2356 2265 2146 2053 1995
1833 1876 1893 1900 1874 1866 1868 1850 1804 1736 1674 1574 1423 1334 1446 1988 2334 2271 2274 2424 2435 2341 2272 2254 2231 2162 2161 2219 2250 2335 2399 2399 2382 2374 2394 2440 2464 2430 2344 2232 2115 2024
1909 1899 1911 1932 1930 1913 1868 1853 1823 1750 1658 1593 1512 1408 1330 1394 1888 2282 2235 2183 2367 2486 2443 2376 2343 2285 2242 2304 2339 2370 2446 2480 2473 2406 2358 2350 2393 2428 2398 2326 2225 2105
2062 2017 1978 1959 1955 1943 1887 1852 1818 1779 1711 1601 1511 1445 1382 1363 1478 1943 2257 2210 2116 2222 2408 2419 2380 2347 2300 2376 2442 2456 2486 2552 2558 2516 2444 2374 2330 2340 2356 2342 2285 2205
2144 2148 2110 2074 2039 2002 1951 1874 1811 1789 1748 1674 1575 1501 1430 1426 1453 1618 2000 2231 2196 2058 2082 2316 2376 2320 2284 2305 2478 2555 2534 2540 2582 2604 2589 2516 2427 2346 2316 2323 2304 2254
2218 2221 2228 2216 2170 2116 2050 1978 1878 1791 1745 1710 1671 1621 1540 1487 1503 1579 1770 2034 2199 2202 2099 2078 2284 2410 2352 2303 2314 2513 2595 2573 2572 2622 2651 2631 2549 2460 2380 2333 2358 2331
2353 2304 2325 2326 2295 2227 2159 2087 1991 1867 1760 1706 1685 1692 1687 1611 1580 1620 1747 1906 2067 2190 2207 2140 2100 2267 2481 2496 2402 2358 2464 2555 2576 2592 2629 2668 2627 2570 2490 2408 2362 2376
2598 2466 2429 2414 2371 2338 2278 2190 2100 1987 1845 1716 1657 1652 1733 1768 1724 1683 1740 1901 2038 2130 2194 2205 2162 2136 2238 2514 2602 2537 2452 2468 2533 2559 2590 2638 2661 2640 2591 2504 2437 2383
2830 2852 2832 2733 2528 2431 2367 2286 2203 2095 1955 1785 1660 1609 1638 1795 1839 1814 1790 1842 2013 2180 2257 2301 2303 2250 2200 2254 2507 2670 2671 2587 2486 2526 2553 2588 2640 2664 2649 2612 2547 2479
3198 3211 3219 3161 3056 2888 2623 2411 2325 2217 2076 1916 1728 1624 1608 1691 1850 1914 1902 1870 1922 2070 2232 2333 2406 2425 2412 2343 2324 2492 2692 2780 2665 2562 2528 2506 2524 2598 2658 2664 2629 2561
3574 3531 3473 3409 3326 3225 3070 2806 2429 2314 2197 2062 1886 1780 1722 1728 1842 1947 1981 1983 1970 2011 2082 2194 2300 2414 2519 2545 2510 2441 2481 2688 2757 2676 2596 2543 2505 2498 2553 2644 2659 2652
3747 3704 3642 3566 3494 3403 3277 3089 2866 2558 2348 2222 2077 1962 1923 1897 1951 2064 2151 2162 2126 2075 2082 2127 2216 2314 2441 2582 2666 2686 2627 2550 2600 2627 2616 2597 2593 2596 2561 2570 2622 2678
3812 3781 3742 3683 3610 3530 3392 3236 3070 2916 2682 2374 2258 2123 2031 2007 2048 2162 2337 2428 2430 2378 2291 2252 2274 2351 2423 2488 2602 2741 2802 2769 2710 2636 2599 2608 2646 2672 2670 2635 2630 2670
3850 3844 3810 3755 3689 3588 3456 3325 3193 3065 2924 2700 2438 2295 2188 2090 2072 2116 2255 2457 2598 2636 2601 2539 2479 2455 2520 2630 2668 2686 2785 2837 2841 2788 2736 2678 2659 2669 2704 2716 2698 2676
3770 3838 3831 3773 3714 3617 3518 3420 3318 3200 3048 2908 2770 2559 2340 2171 2124 2150 2192 2297 2476 2641 2746 2750 2712 2663 2617 2605 2770 2878 2903 2898 2882 2872 2832 2802 2773 2763 2756 2762 2773 2754
3527 3779 3825 3800 3744 3667 3582 3513 3415 3313 3204 3072 2940 2788 2631 2482 2381 2289 2186 2289 2321 2435 2564 2708 2787 2811 2801 2774 2728 2811 2993 3078 3095 3085 3054 3029 3013 3015 3018 3028 3034 3060
Wind_Speed
3 4 5 6 6 6 5 5 5 3 3 1 1 3 3 3 4 7 8 7 8 9 9 9 10 10 11 12 12 11 11 12 11 10 11 11 10 10 10 9 8 nan
3 4 7 8 8 8 8 7 5 3 3 2 2 1 0 2 5 6 6 7 7 8 8 8 9 10 10 10 11 11 11 11 12 10 12 12 12 12 12 11 11 10
5 6 6 6 7 7 7 8 7 5 3 3 2 2 2 2 4 5 6 7 8 8 8 8 9 10 10 10 9 10 11 11 12 12 13 14 13 13 12 12 11 12
6 7 8 7 8 8 8 9 9 8 6 6 3 3 4 5 5 6 7 9 9 9 10 10 10 10 11 10 10 10 10 11 11 11 12 12 13 14 14 13 13 12
7 8 9 9 9 9 9 9 8 7 5 4 4 6 6 6 7 6 7 8 9 9 10 10 10 10 11 11 11 11 11 11 10 11 12 13 14 15 15 15 15 15
10 9 9 9 9 8 9 9 8 6 5 4 2 5 5 6 6 6 7 8 8 9 10 10 10 10 11 11 11 11 12 12 12 12 13 14 14 15 15 17 18 17
9 9 8 9 10 10 10 10 9 7 5 3 4 3 5 6 6 6 7 8 9 9 10 10 10 10 11 11 11 11 11 12 13 14 13 13 14 15 16 18 19 19
9 11 10 10 9 9 9 9 8 6 4 4 2 0 3 5 6 6 7 8 8 9 9 10 10 11 11 11 11 10 11 11 13 15 14 13 14 15 17 18 19 19
10 10 10 9 8 8 8 7 6 5 5 2 0 1 2 3 5 6 7 8 8 8 8 8 10 11 11 12 11 11 10 10 11 13 15 15 15 15 17 17 18 18
9 9 7 7 7 7 6 5 5 5 3 1 1 1 2 2 4 5 6 7 7 8 8 8 9 10 11 11 11 10 9 9 10 11 12 13 15 15 15 15 17 17
7 6 6 5 5 5 5 4 4 4 3 3 2 1 1 2 3 4 5 6 6 7 8 9 9 10 9 9 9 9 9 8 9 9 10 11 12 14 15 15 16 17
5 5 5 4 5 5 5 5 5 4 4 3 2 2 0 2 3 4 5 7 7 8 8 8 8 8 9 9 9 9 9 9 8 9 10 11 12 12 13 14 15 16
5 6 6 6 6 6 6 6 5 5 4 4 2 2 2 2 4 5 5 7 8 7 7 7 7 7 8 9 9 10 11 11 12 13 13 13 15 16 16 16 16 17
6 6 6 6 6 6 6 6 5 5 4 3 2 3 3 4 5 7 6 6 7 6 6 5 5 6 8 9 10 11 12 14 15 16 17 17 18 19 19 19 20 19
6 7 7 6 5 5 6 6 5 4 3 2 1 2 2 4 6 6 6 6 5 5 5 4 4 6 7 8 10 13 13 15 16 17 17 17 18 19 19 19 18 18
6 6 6 5 4 4 4 4 4 3 2 2 1 2 3 4 5 5 6 6 6 5 3 3 5 5 9 15 14 12 12 12 13 15 16 16 16 16 16 16 17 16
7 6 5 3 3 3 3 2 2 2 1 1 0 1 3 4 5 5 6 5 6 5 4 4 5 6 12 13 15 17 13 11 12 13 13 13 13 13 14 14 13 14
5 5 5 4 5 3 3 3 4 3 2 2 1 1 2 3 4 5 5 5 4 4 4 5 6 8 11 11 13 15 15 12 10 10 10 11 11 12 11 10 12 12
1 1 2 3 4 5 6 8 7 6 4 3 1 3 5 3 3 4 5 5 4 3 4 5 5 8 10 11 12 14 15 13 8 8 8 9 9 9 9 9 9 10
4 4 3 3 4 7 8 8 7 6 6 6 7 8 5 3 2 3 3 3 3 2 3 4 5 5 8 10 11 13 13 11 7 7 6 6 6 7 6 8 10 10
5 5 5 4 5 7 8 7 7 7 7 8 9 8 6 4 3 2 2 3 1 1 3 4 5 4 4 8 10 12 12 10 4 3 3 4 4 3 5 6 8 9
7 7 8 7 7 7 7 6 7 7 7 8 10 9 8 7 6 5 3 3 3 4 4 6 6 1 4 7 9 10 12 7 4 3 3 3 3 3 4 5 7 10
9 10 10 10 10 9 7 6 6 6 7 10 9 8 6 5 4 5 5 5 5 5 4 6 7 6 7 9 10 12 13 8 6 4 3 4 4 6 7 9 12 14
11 12 13 13 13 12 9 6 6 7 8 9 7 6 5 5 6 7 7 6 6 4 5 8 9 9 10 11 12 15 15 11 9 7 5 6 7 10 12 14 16 18
11 12 14 15 16 15 13 9 7 7 8 9 7 7 7 9 9 8 7 7 6 4 4 5 9 10 11 12 13 14 14 11 11 9 7 8 10 11 14 15 17 19
12 12 13 15 16 17 16 11 9 9 10 10 9 10 10 10 9 8 6 6 7 7 8 8 9 11 13 12 14 14 16 13 13 11 9 9 11 11 13 15 17 18
Wind_Direction
170 176 169 163 158 144 123 119 132 116 113 145 19 35 22 13 0 16 24 23 23 20 14 10 8 14 19 19 22 18 14 15 11 3 2 358 358 351 358 1 357 nan
167 167 172 172 170 164 149 140 148 147 111 96 87 59 72 324 15 13 13 12 9 12 4 355 353 357 3 6 9 10 11 8 12 3 4 3 1 353 357 355 355 353
181 171 164 163 163 156 152 154 159 166 161 118 162 213 255 306 346 345 340 336 338 343 342 338 335 338 343 348 345 351 356 0 5 2 2 7 2 359 0 352 346 345
181 171 164 158 160 153 151 162 165 170 180 197 192 225 259 273 296 311 306 313 313 320 324 322 326 325 327 331 328 330 337 345 351 345 353 356 359 359 360 353 350 343
187 176 169 161 155 152 156 154 155 164 172 184 210 227 248 265 280 294 300 304 307 313 313 320 319 320 321 321 320 321 319 327 330 332 340 348 350 350 353 349 352 354
186 176 170 161 150 149 150 144 144 150 155 178 207 243 253 275 288 303 310 311 309 312 313 315 318 320 318 319 317 321 318 319 322 328 337 343 343 342 341 345 349 355
180 173 163 162 155 154 151 146 150 152 154 152 209 242 265 281 299 314 315 317 312 310 315 314 318 320 313 312 316 321 321 322 318 326 338 340 335 339 341 341 347 351
172 173 168 169 161 158 150 147 152 162 160 187 204 282 290 311 315 306 306 309 308 313 316 318 320 322 317 313 319 323 327 319 323 327 336 340 334 342 343 342 342 346
174 175 176 171 162 161 145 143 152 157 181 182 105 274 291 313 320 318 310 307 309 311 315 320 323 322 321 323 328 334 337 334 333 335 339 341 342 347 346 341 341 343
173 176 177 173 162 158 141 142 145 141 156 132 111 229 291 301 311 316 310 311 316 319 324 330 330 330 329 332 339 343 347 349 344 342 342 343 345 347 346 343 347 346
163 170 167 159 149 158 132 128 116 112 120 85 90 163 261 291 303 302 316 322 329 338 340 342 346 340 339 342 343 348 358 359 355 349 349 351 353 356 356 357 358 358
154 160 154 141 135 138 119 109 102 97 92 97 93 79 17 312 327 319 331 344 350 354 352 354 346 339 350 0 2 4 10 19 20 17 19 21 22 22 18 13 14 14
159 159 160 152 144 134 129 119 101 90 82 85 93 67 23 350 342 353 352 349 354 352 359 360 349 348 2 14 21 27 35 42 49 50 50 50 49 47 45 39 35 32
161 169 168 160 158 141 122 113 106 98 92 94 94 47 25 1 1 5 2 352 356 351 360 353 353 8 21 28 35 44 51 57 59 60 58 58 59 58 56 52 48 44
181 182 182 173 157 139 127 117 112 113 116 113 93 41 5 3 6 3 356 358 3 1 6 3 16 34 39 40 44 49 50 54 56 58 58 59 59 59 57 54 51 47
200 195 188 177 158 139 139 129 124 130 136 121 80 21 4 356 356 354 354 1 6 11 21 39 56 64 51 40 38 41 43 51 56 57 57 59 60 59 57 51 48 43
206 199 199 188 184 191 186 161 126 181 174 137 159 342 1 347 340 347 352 355 8 16 37 63 74 74 47 38 37 37 38 49 55 57 57 59 61 57 54 48 45 39
201 209 212 213 230 245 253 245 239 246 252 261 270 319 301 302 331 344 350 351 357 33 61 76 85 65 45 36 33 36 38 47 56 59 57 56 54 50 46 38 36 31
115 248 255 248 254 255 249 247 255 265 273 269 287 248 241 268 323 334 348 349 4 44 78 86 96 60 42 31 27 30 36 43 64 60 55 54 48 44 38 28 22 17
25 15 353 318 281 269 262 263 271 287 281 256 234 235 237 241 299 342 337 340 7 65 119 118 102 71 29 22 17 17 22 25 61 60 60 56 45 37 27 21 15 4
351 349 339 318 299 285 281 285 293 284 279 259 244 239 241 241 250 270 292 311 322 195 172 137 134 68 4 5 2 0 4 358 39 61 76 71 53 27 13 8 359 349
327 330 334 327 312 296 290 295 295 291 284 260 240 228 226 231 230 234 245 255 237 216 181 143 160 251 316 330 340 340 338 313 327 5 40 55 37 348 335 327 325 330
315 321 325 327 322 315 301 284 280 276 256 241 232 229 235 247 253 253 239 227 226 224 182 162 186 239 287 309 315 321 302 295 307 313 342 13 5 331 326 327 326 326
305 314 320 322 325 327 313 278 263 254 253 244 237 233 233 239 244 242 242 236 235 223 195 182 197 236 278 290 305 310 307 300 299 308 335 344 338 329 322 323 329 340
289 306 316 320 323 326 319 299 269 258 252 246 234 227 229 236 240 241 243 246 247 230 210 190 198 227 272 287 301 306 305 285 290 296 318 324 317 319 314 314 317 321
268 289 303 312 316 318 319 310 273 250 251 250 241 237 236 238 241 237 237 236 235 227 218 214 211 221 251 287 294 303 314 291 280 290 307 310 305 301 297 301 303 301